Wind_Speed
5 5 5 5 4 3 3 2 2 2 2 3 3 3 3 4 4 4 4 5 6 6 7 7 7 7 8 8 8 8 8 8 8 8 8 8 8 8 9 9 10 10 10
5 5 4 4 4 3 3 2 2 2 2 3 3 3 4 5 5 5 5 6 6 7 7 8 8 8 9 9 9 9 8 8 9 9 9 9 9 10 10 10 11 11 12
5 5 5 3 3 3 3 2 2 2 3 3 4 4 5 5 6 6 7 7 8 8 9 9 9 10 10 10 10 10 9 9 10 10 10 10 10 11 11 12 12 13 13
3 4 3 3 3 3 3 3 3 4 4 3 4 4 5 7 8 8 8 9 9 9 10 10 10 11 11 11 11 10 10 10 10 11 11 11 12 12 12 12 12 12 12
3 2 2 2 2 3 3 3 3 4 4 5 5 5 6 8 8 8 9 10 10 10 11 11 11 12 12 11 11 11 11 11 11 11 11 12 12 12 12 12 12 12 12
2 2 2 2 2 2 3 3 3 4 5 5 6 6 7 8 9 9 10 11 11 11 11 11 11 11 12 12 12 12 12 12 12 12 12 12 12 13 12 12 12 11 12
2 3 2 2 2 2 3 3 3 4 5 6 6 7 7 9 10 10 10 11 12 12 12 12 12 12 12 12 12 12 12 12 12 13 13 13 13 13 13 12 11 11 11
3 3 2 2 2 2 3 3 4 5 5 6 6 7 8 10 11 11 10 11 11 12 13 13 13 13 12 13 13 12 12 12 13 13 13 13 13 13 13 13 13 13 12
4 3 2 2 2 3 3 4 5 6 6 7 7 8 10 11 12 12 12 12 13 13 13 13 13 14 14 13 13 13 13 13 13 13 14 14 13 13 14 14 13 13 13
4 3 3 2 2 3 4 4 5 6 7 8 9 10 11 12 13 13 13 13 14 14 14 13 14 14 14 15 14 13 13 14 14 14 14 14 14 14 14 14 14 14 14
3 3 3 2 2 3 5 6 6 7 8 9 9 10 12 13 14 14 14 14 15 14 14 13 14 14 15 15 15 14 14 15 15 15 14 14 15 15 15 14 14 13 14
3 3 3 4 3 4 5 7 7 8 9 10 11 12 13 14 15 15 15 15 15 14 14 14 15 15 15 16 16 16 16 16 15 15 15 15 15 16 16 15 14 14 14
4 4 5 5 6 6 7 8 9 9 10 11 12 14 14 16 16 16 16 16 16 15 15 15 16 15 16 16 17 17 17 17 17 16 16 16 16 16 16 15 15 15 15
6 6 6 7 7 7 9 10 10 11 11 12 14 15 15 16 16 17 17 17 17 17 16 16 17 17 17 17 18 18 18 17 18 17 17 17 16 17 16 16 16 16 16
7 7 8 8 8 9 10 11 11 13 13 14 15 16 16 16 17 18 18 18 17 17 17 18 18 18 18 18 18 19 18 18 18 18 18 18 17 17 16 17 17 17 17
8 8 9 10 10 11 11 12 13 14 15 15 16 16 16 17 18 19 19 19 19 19 18 18 19 19 19 19 19 19 19 19 18 18 19 18 18 17 17 17 18 18 17
9 10 10 11 12 12 13 14 15 15 16 17 17 17 17 17 18 19 19 20 20 20 20 20 20 20 20 20 20 20 19 19 19 19 19 19 19 18 18 18 18 18 18
12 13 13 13 14 14 15 16 17 17 17 17 18 18 18 18 19 20 20 20 21 22 22 21 22 22 22 22 22 22 21 21 21 21 20 20 21 20 20 20 20 19 19
14 15 16 17 16 17 18 18 19 18 19 19 20 20 20 20 21 21 21 22 23 23 23 23 23 24 24 24 24 23 23 23 23 22 21 21 22 22 21 21 21 20 20
17 17 19 19 19 19 20 20 20 20 20 21 22 22 22 23 23 23 23 24 24 24 25 25 25 25 26 26 25 25 25 24 24 23 23 23 23 23 22 22 21 21 21
18 19 21 21 21 21 22 22 23 23 23 23 24 24 25 25 25 25 25 24 25 25 26 26 26 27 27 27 27 26 26 25 25 25 25 25 24 24 23 23 22 22 22
21 22 22 23 23 23 23 23 23 23 24 25 26 26 26 26 27 28 27 26 26 26 27 27 27 28 28 28 28 28 28 27 27 26 27 26 26 25 25 24 23 23 22
23 24 24 24 24 24 25 25 25 25 27 27 28 29 29 29 29 29 28 28 28 28 28 29 29 29 29 29 30 30 30 29 28 28 27 27 27 26 26 25 24 24 24
26 26 26 26 26 26 27 27 28 29 29 30 30 31 31 30 30 30 29 29 29 29 30 30 31 31 31 31 31 32 31 31 30 29 28 27 27 27 26 26 26 26 25
28 28 28 29 29 29 29 29 30 31 31 31 32 32 31 30 30 30 30 30 31 31 32 32 32 32 32 31 32 32 33 32 31 30 29 28 28 28 27 27 27 26 26
30 30 30 30 30 30 31 31 32 32 33 33 33 32 31 30 31 31 31 32 32 32 33 33 33 33 33 32 33 33 33 32 31 30 29 30 30 29 28 28 28 27 27
Wind_Direction
111 113 112 109 98 94 99 89 73 66 56 38 29 21 8 358 353 355 355 347 344 343 342 342 342 337 331 322 316 310 306 306 304 304 303 298 299 293 294 287 278 270 267
98 98 109 101 88 75 71 66 49 31 15 6 10 7 357 344 347 351 349 343 337 337 337 337 335 331 330 325 320 315 303 301 304 304 303 300 296 295 293 290 285 277 269
83 89 96 85 68 59 63 55 31 13 358 357 359 356 348 345 344 342 338 334 331 330 332 329 324 325 325 322 320 316 307 300 301 304 304 303 302 297 292 291 288 281 275
86 85 87 76 59 50 43 32 19 10 360 343 337 338 339 343 341 337 333 328 327 325 324 321 320 321 321 320 319 316 311 304 301 303 302 301 303 301 293 289 288 283 276
81 84 73 76 56 32 24 17 9 1 354 344 334 337 341 340 337 332 332 331 326 322 321 320 320 319 319 320 318 315 312 309 304 305 304 304 305 304 300 294 289 283 275
57 60 56 57 44 19 11 5 359 350 349 347 345 346 342 339 338 332 330 330 328 324 322 321 323 321 320 319 318 315 312 311 307 308 306 304 303 303 300 299 294 287 279
49 45 59 50 40 32 18 10 356 349 350 349 347 345 341 340 340 334 331 329 329 326 324 321 322 322 321 321 318 314 311 309 308 306 305 303 301 301 298 299 295 288 283
29 34 55 57 35 22 17 9 2 356 352 348 342 337 338 335 335 333 328 327 329 326 321 321 322 322 323 320 316 312 310 308 306 306 305 303 301 299 298 296 292 289 283
16 18 30 34 10 4 8 359 352 348 345 342 341 339 339 337 336 333 330 330 330 327 323 321 320 320 319 319 316 310 309 307 305 304 303 302 300 298 297 294 292 288 285
9 10 32 34 359 351 348 346 341 339 338 337 335 334 334 334 332 331 329 328 327 324 322 322 321 319 319 320 320 317 312 308 306 304 302 301 301 300 299 296 292 290 287
8 11 10 359 338 336 342 343 340 337 335 333 329 330 331 332 333 332 329 326 325 324 321 321 322 320 320 320 319 315 314 311 308 304 303 300 299 298 298 296 292 290 288
342 341 336 331 323 326 332 335 337 334 331 330 328 329 328 328 329 329 328 324 323 322 320 320 321 322 321 319 317 315 312 310 308 304 303 301 299 297 297 292 290 288 286
320 317 310 312 312 317 324 329 331 330 332 332 330 329 327 327 326 326 326 323 323 322 320 319 319 318 318 316 314 313 310 306 307 304 302 300 298 296 294 291 290 287 284
311 311 311 310 309 312 317 322 328 331 332 331 328 327 327 325 322 323 323 323 322 322 323 321 317 315 315 313 312 310 309 306 304 301 299 298 297 296 292 290 289 287 284
303 301 304 309 309 308 310 314 318 321 323 324 324 325 325 325 322 323 323 326 323 322 322 321 320 318 316 314 312 310 307 304 302 300 298 297 295 295 293 289 287 286 285
297 295 295 302 302 303 307 311 313 315 318 321 321 323 323 326 324 322 322 321 322 323 324 323 321 320 316 315 314 310 307 306 303 299 297 296 294 294 294 289 286 285 284
300 299 298 301 302 304 306 308 310 311 314 316 320 323 324 325 324 321 319 319 319 321 322 321 319 320 319 317 315 313 308 305 303 301 297 294 293 291 293 292 288 284 283
301 299 298 301 302 303 305 306 306 308 310 313 316 318 319 321 320 320 318 317 316 317 317 317 315 315 315 315 314 311 306 302 299 299 298 295 292 289 290 290 287 284 282
296 298 298 297 299 300 303 304 304 306 308 310 312 312 313 314 314 315 316 316 315 314 313 313 312 312 312 312 310 309 306 301 298 295 296 297 293 290 289 288 286 283 280
294 296 295 295 295 295 297 300 300 302 304 306 307 309 308 308 309 310 311 312 312 311 310 310 309 310 310 309 308 307 306 304 299 295 294 295 294 291 289 287 284 282 280
292 295 298 295 294 293 293 295 296 299 300 301 304 306 306 306 307 307 308 308 308 309 308 307 308 308 308 307 306 305 304 301 301 296 293 293 293 291 288 285 284 282 279
292 297 299 296 293 290 290 292 294 297 300 300 302 304 303 303 303 303 304 305 306 306 306 306 306 306 306 305 305 304 303 300 299 296 293 291 290 290 286 284 283 283 279
290 293 295 296 294 293 291 293 292 294 297 298 299 301 301 300 300 301 302 303 303 303 304 304 304 304 304 303 302 302 302 300 298 296 293 291 289 288 285 283 282 281 279
290 293 294 293 292 292 292 291 290 292 295 297 297 298 299 300 299 299 300 301 302 302 302 302 303 303 302 300 300 299 299 298 297 296 291 290 288 287 285 283 283 282 280
289 290 291 290 291 291 291 292 292 291 293 295 297 298 298 299 299 298 299 300 300 299 299 300 301 301 301 299 298 297 297 297 295 293 289 288 287 285 284 283 283 281 280
289 290 291 291 290 291 292 292 292 292 293 295 296 296 296 296 297 297 298 299 299 298 298 298 299 300 300 299 298 297 296 295 294 291 289 286 285 284 282 282 281 279 278
Height
5892 5893 5893 5894 5894 5895 5895 5895 5896 5896 5896 5897 5897 5896 5896 5896 5896 5895 5895 5895 5894 5894 5893 5892 5891 5890 5890 5889 5889 5888 5888 5887 5887 5886 5886 5885 5885 5885 5884 5884 5884 5884 5885
5893 5893 5894 5895 5895 5895 5896 5896 5897 5897 5897 5897 5897 5897 5896 5896 5895 5896 5895 5894 5894 5893 5892 5891 5890 5890 5889 5888 5887 5887 5886 5886 5885 5885 5884 5884 5883 5883 5882 5882 5882 5882 5882
5894 5895 5895 5896 5896 5896 5896 5897 5897 5897 5897 5897 5897 5897 5896 5895 5895 5895 5894 5894 5893 5892 5891 5890 5889 5888 5887 5886 5886 5885 5884 5884 5883 5883 5882 5882 5881 5881 5880 5880 5879 5879 5879
5895 5896 5896 5896 5897 5897 5897 5897 5898 5898 5897 5897 5897 5897 5896 5896 5895 5894 5894 5893 5893 5892 5891 5889 5888 5887 5886 5885 5884 5883 5882 5882 5881 5881 5880 5880 5879 5878 5878 5877 5877 5877 5876
5896 5896 5897 5897 5897 5898 5898 5898 5898 5898 5898 5897 5897 5897 5896 5896 5895 5894 5893 5892 5892 5891 5889 5888 5887 5886 5884 5883 5882 5881 5880 5880 5879 5879 5878 5877 5876 5876 5875 5875 5874 5874 5874
5896 5896 5897 5897 5898 5898 5898 5898 5898 5898 5898 5897 5897 5896 5896 5895 5894 5893 5892 5891 5890 5889 5888 5886 5885 5884 5883 5881 5880 5879 5878 5878 5877 5876 5875 5875 5874 5873 5872 5872 5871 5871 5871
5897 5897 5897 5898 5898 5898 5898 5898 5898 5898 5898 5897 5896 5896 5895 5895 5893 5892 5891 5890 5889 5887 5886 5885 5883 5882 5881 5879 5878 5877 5876 5875 5874 5874 5873 5872 5871 5870 5870 5869 5869 5868 5868
5897 5897 5897 5898 5898 5898 5898 5898 5898 5898 5897 5897 5896 5895 5895 5894 5892 5891 5890 5888 5887 5886 5884 5883 5881 5880 5879 5877 5876 5875 5874 5873 5872 5871 5870 5869 5868 5867 5867 5866 5866 5865 5865
5897 5898 5898 5898 5898 5899 5898 5898 5898 5897 5897 5896 5895 5895 5894 5892 5891 5890 5888 5887 5885 5884 5883 5881 5879 5878 5876 5875 5873 5872 5871 5870 5869 5868 5867 5866 5865 5864 5863 5863 5862 5862 5861
5898 5898 5898 5898 5898 5898 5898 5898 5897 5897 5896 5895 5894 5893 5892 5891 5889 5888 5886 5885 5884 5882 5880 5879 5877 5876 5874 5872 5871 5869 5868 5867 5865 5864 5863 5862 5862 5861 5860 5859 5859 5858 5858
5898 5898 5898 5898 5898 5898 5898 5897 5897 5896 5896 5895 5893 5892 5891 5889 5887 5886 5885 5883 5882 5880 5878 5877 5875 5873 5872 5870 5868 5867 5865 5864 5862 5861 5860 5859 5858 5857 5856 5856 5855 5854 5854
5898 5898 5898 5898 5898 5897 5897 5896 5895 5895 5894 5893 5892 5891 5889 5887 5886 5884 5882 5880 5879 5877 5875 5874 5872 5871 5869 5867 5866 5864 5862 5861 5859 5858 5857 5855 5854 5853 5853 5852 5851 5851 5850
5898 5897 5897 5897 5897 5896 5896 5895 5894 5893 5893 5891 5890 5889 5887 5885 5883 5882 5880 5878 5876 5874 5873 5871 5869 5868 5866 5864 5862 5861 5859 5857 5856 5854 5853 5852 5851 5849 5848 5848 5847 5846 5846
5897 5897 5896 5896 5896 5895 5895 5894 5893 5892 5891 5890 5888 5887 5885 5883 5881 5879 5877 5875 5873 5872 5870 5868 5866 5865 5863 5861 5859 5856 5855 5854 5852 5850 5849 5848 5847 5845 5844 5843 5843 5842 5841
5896 5896 5895 5894 5894 5893 5893 5892 5891 5890 5889 5888 5886 5884 5882 5880 5878 5876 5874 5872 5871 5869 5867 5865 5863 5861 5859 5857 5855 5853 5851 5849 5848 5846 5845 5843 5842 5841 5840 5839 5838 5837 5837
5894 5894 5894 5893 5893 5892 5891 5890 5889 5888 5886 5885 5883 5881 5879 5877 5875 5873 5871 5869 5867 5865 5863 5861 5859 5857 5855 5853 5851 5849 5847 5845 5843 5842 5840 5839 5837 5836 5835 5834 5834 5833 5832
5892 5892 5892 5891 5890 5889 5888 5887 5886 5885 5883 5882 5880 5878 5876 5874 5872 5870 5868 5866 5863 5861 5860 5858 5855 5852 5851 5848 5846 5844 5842 5840 5839 5837 5836 5834 5833 5832 5831 5829 5828 5828 5827
5890 5890 5889 5888 5888 5887 5886 5884 5883 5881 5880 5878 5877 5875 5873 5871 5869 5866 5864 5862 5860 5858 5856 5853 5851 5848 5846 5844 5841 5839 5837 5836 5834 5832 5831 5829 5828 5827 5826 5824 5823 5823 5822
5887 5886 5886 5885 5884 5883 5882 5880 5879 5877 5876 5875 5873 5871 5869 5867 5865 5862 5860 5858 5856 5853 5851 5849 5846 5843 5841 5838 5836 5834 5832 5830 5828 5827 5825 5824 5822 5821 5820 5819 5818 5817 5816
5884 5883 5882 5881 5879 5879 5877 5876 5875 5873 5872 5870 5868 5866 5864 5862 5860 5857 5855 5853 5851 5848 5846 5843 5841 5838 5835 5832 5830 5828 5826 5824 5822 5821 5819 5818 5816 5815 5814 5813 5812 5811 5810
5880 5879 5877 5876 5875 5874 5873 5871 5870 5868 5867 5865 5863 5861 5859 5857 5854 5852 5850 5847 5845 5843 5840 5838 5835 5832 5829 5826 5824 5822 5820 5818 5816 5814 5813 5811 5810 5809 5808 5806 5805 5804 5804
5875 5874 5872 5871 5869 5868 5867 5866 5864 5863 5861 5859 5857 5855 5853 5851 5848 5846 5844 5841 5839 5836 5834 5831 5829 5826 5823 5820 5818 5815 5813 5811 5809 5808 5806 5804 5803 5802 5801 5800 5799 5798 5797
5870 5868 5867 5866 5864 5863 5861 5860 5858 5857 5855 5852 5851 5849 5846 5844 5842 5840 5837 5834 5832 5829 5827 5825 5822 5819 5816 5814 5811 5808 5806 5804 5802 5800 5798 5796 5795 5794 5793 5792 5792 5791 5790
5864 5863 5861 5860 5858 5857 5855 5853 5851 5850 5848 5846 5843 5841 5839 5837 5834 5832 5830 5827 5824 5822 5820 5817 5815 5812 5809 5806 5803 5801 5798 5796 5794 5792 5790 5789 5787 5787 5786 5784 5784 5783 5783
5858 5856 5854 5853 5852 5850 5848 5846 5844 5842 5840 5838 5836 5833 5831 5829 5827 5824 5822 5820 5817 5814 5812 5809 5807 5804 5801 5798 5795 5792 5790 5787 5785 5784 5782 5780 5779 5778 5777 5777 5776 5775 5774
5850 5849 5847 5845 5844 5842 5840 5838 5836 5834 5832 5830 5828 5826 5823 5821 5819 5817 5814 5812 5809 5807 5804 5801 5798 5795 5792 5789 5786 5783 5780 5778 5776 5775 5773 5771 5770 5769 5769 5768 5767 5766 5766